Cartersville, GA

9:20 AM EDT on March 28, 2017 (GMT -0400)
Cartersville

Weather History for KVPC - January, 2013

Change the Weather History Date:

Thursday, January 17, 2013

  Actual Average Record
Temperature  
Mean Temperature 42 °F 41 °F  
Max Temperature 46 °F 52 °F 74 °F (2017)
Min Temperature 36 °F 30 °F 10 °F (2009)
Degree Days  
Heating Degree Days 24 24  
Month to date heating degree days 408  
Since 1 July heating degree days 1710  
Moisture  
Dew Point 41 °F    
Average Humidity 94    
Maximum Humidity 100    
Minimum Humidity 76    
Precipitation  
Precipitation 0.66 in 0.15 in 1.19 in (2006)
Month to date precipitation 2.20  
Year to date precipitation 2.20  
Snow  
Snow 0.00 in - - ()
Month to date snowfall  
Since 1 July snowfall  
Snow Depth -    
Sea Level Pressure  
Sea Level Pressure 29.92 in    
Wind  
Wind Speed 4 mph (North)    
Max Wind Speed 15 mph    
Max Gust Speed 26 mph    
Visibility 5 miles    
Events Rain    
T = Trace of Precipitation, MM = Missing Value Source: NWS Daily Summary

Daily Weather History Graph

Daily Weather History Graph

Search for Another Location

Airport or City:

Trip Planner

Search our weather history database for the weather conditions in past years. The results will help you decide how hot, cold, wet, or windy it might be!

Date:

Astronomy

Jan. 17, 2013 Rise Set
Actual Time 7:44 AM EST 5:55 PM EST
Civil Twilight 7:17 AM EST 6:22 PM EST
Nautical Twilight 6:46 AM EST 6:52 PM EST
Astronomical Twilight 6:16 AM EST 7:23 PM EST
Moon 11:10 AM EST (1/17) No Moon Set
Length of Visible Light 11h 05m
Length of Day
10h 10m
Waxing Crescent, 37% of the Moon is Illuminated
Jan 17
Waxing Crescent
Jan 18
First Quarter
Jan 26
Full
Feb 3
Last Quarter
Feb 10
New

Hourly Weather History & Observations

Time (EST) Temp. Windchill Dew Point Humidity Pressure Visibility Wind Dir Wind Speed Gust Speed Precip Events Conditions
12:25 AM 46.4 °F 45.2 °F 46.4 °F 100% 30.00 in 5.0 mi Variable 3.5 mph - 0.02 in Rain Light Rain
12:51 AM 46.4 °F 45.2 °F 44.6 °F 93% 29.99 in 8.0 mi Variable 3.5 mph - 0.02 in Rain Light Rain
12:53 AM 46.0 °F 44.8 °F 45.0 °F 96% 29.98 in 8.0 mi Variable 3.5 mph - 0.02 in Rain Light Rain
1:53 AM 46.0 °F 44.8 °F 45.0 °F 96% 29.97 in 5.0 mi NNW 3.5 mph - 0.04 in Rain Light Rain
2:53 AM 46.0 °F - 45.0 °F 96% 29.95 in 3.0 mi Calm Calm - 0.04 in Rain Rain
3:53 AM 45.0 °F 43.5 °F 45.0 °F 100% 29.93 in 10.0 mi NNW 3.5 mph - 0.03 in Rain Light Rain
4:53 AM 45.0 °F - 45.0 °F 100% 29.90 in 4.0 mi Calm Calm - 0.02 in   Overcast
5:26 AM 44.6 °F - 44.6 °F 100% 29.90 in 2.0 mi Calm Calm - 0.01 in   Overcast
5:34 AM 44.6 °F - 44.6 °F 100% 29.90 in 3.0 mi Calm Calm - 0.01 in   Overcast
5:53 AM 45.0 °F 43.5 °F 45.0 °F 100% 29.88 in 3.0 mi North 3.5 mph - 0.02 in Rain Light Rain
6:34 AM 44.6 °F - 44.6 °F 100% 29.89 in 2.5 mi Calm Calm - 0.01 in Rain Light Rain
7:07 AM 44.6 °F 43.1 °F 44.6 °F 100% 29.89 in 3.0 mi Variable 3.5 mph - 0.02 in Rain Light Rain
7:25 AM 44.6 °F 42.2 °F 44.6 °F 100% 29.88 in 5.0 mi North 4.6 mph - 0.03 in Rain Light Rain
7:53 AM 45.0 °F 42.6 °F 44.1 °F 97% 29.88 in 4.0 mi NNW 4.6 mph - 0.05 in Rain Light Rain
8:53 AM 44.1 °F 42.5 °F 44.1 °F 100% 29.86 in 2.5 mi Variable 3.5 mph - 0.06 in Rain Rain
9:29 AM 44.6 °F 43.1 °F 44.6 °F 100% 29.88 in 1.8 mi NNW 3.5 mph - 0.08 in Rain Light Rain
9:36 AM 44.6 °F - 44.6 °F 100% 29.88 in 3.0 mi Calm Calm - 0.08 in Rain Light Rain
9:53 AM 44.1 °F 41.5 °F 43.0 °F 96% 29.87 in 3.0 mi Variable 4.6 mph - 0.10 in Rain Rain
10:02 AM 44.6 °F 39.7 °F 42.8 °F 93% 29.86 in 2.5 mi North 9.2 mph - 0.02 in Rain Rain
10:09 AM 44.6 °F 40.7 °F 42.8 °F 93% 29.85 in 4.0 mi NNE 6.9 mph - 0.02 in Rain Light Rain
10:53 AM 44.1 °F 40.8 °F 43.0 °F 96% 29.81 in 10.0 mi NNE 5.8 mph - 0.02 in   Overcast
11:53 AM 45.0 °F 43.5 °F 44.1 °F 97% 29.76 in 10.0 mi East 3.5 mph - N/A   Overcast
12:46 PM 46.4 °F - 44.6 °F 93% 29.75 in 1.8 mi Calm Calm - N/A   Overcast
12:53 PM 46.0 °F - 46.0 °F 100% 29.74 in 1.0 mi Calm Calm - 0.00 in Rain Light Rain
1:24 PM 44.6 °F 40.7 °F 42.8 °F 93% 29.78 in 2.0 mi Variable 6.9 mph 21.9 mph 0.07 in Rain Light Rain
1:32 PM 44.6 °F 40.7 °F 42.8 °F 93% 29.78 in 2.5 mi Variable 6.9 mph - 0.07 in Rain Light Rain
1:50 PM 42.8 °F 38.6 °F 42.8 °F 100% 29.78 in 1.8 mi SSW 6.9 mph - 0.09 in Rain Light Rain
1:53 PM 43.0 °F 38.8 °F 42.1 °F 97% 29.77 in 2.0 mi South 6.9 mph - 0.09 in Rain Light Rain
2:08 PM 44.6 °F 42.2 °F 42.8 °F 93% 29.77 in 4.0 mi Variable 4.6 mph - 0.00 in Rain Light Rain
2:32 PM 42.8 °F 41.1 °F 42.8 °F 100% 29.76 in 9.0 mi Variable 3.5 mph - 0.01 in Rain Light Rain
2:51 PM 42.8 °F 41.1 °F 41.0 °F 93% 29.78 in 10.0 mi Variable 3.5 mph - 0.01 in   Overcast
2:53 PM 42.1 °F - 41.0 °F 96% 29.77 in 10.0 mi Calm Calm - 0.01 in   Overcast
3:39 PM 42.8 °F 41.1 °F 41.0 °F 93% 29.80 in 1.8 mi Variable 3.5 mph - 0.01 in Rain Light Rain
3:53 PM 41.0 °F 37.1 °F 39.9 °F 96% 29.81 in 2.0 mi Variable 5.8 mph - 0.02 in Rain Light Rain
4:01 PM 41.0 °F - 39.2 °F 93% 29.82 in 2.0 mi Calm Calm - 0.01 in Rain Light Rain
4:49 PM 41.0 °F 37.1 °F 37.4 °F 87% 29.88 in 8.0 mi Variable 5.8 mph - 0.03 in   Overcast
4:53 PM 41.0 °F 35.8 °F 37.9 °F 89% 29.88 in 4.0 mi NW 8.1 mph - 0.03 in Rain Light Rain
5:02 PM 39.2 °F 34.2 °F 37.4 °F 93% 29.90 in 1.8 mi Variable 6.9 mph - 0.01 in Rain Light Rain
5:19 PM 39.2 °F 35.9 °F 39.2 °F 100% 29.92 in 2.0 mi Variable 4.6 mph - 0.03 in Rain Light Rain
5:53 PM 37.0 °F 31.6 °F 35.1 °F 93% 29.98 in 4.0 mi Variable 6.9 mph 26.5 mph 0.09 in Rain Rain
6:53 PM 37.0 °F 28.9 °F 36.0 °F 96% 30.08 in 10.0 mi NNW 12.7 mph 21.9 mph 0.02 in   Overcast
7:53 PM 39.0 °F 30.6 °F 35.1 °F 86% 30.13 in 10.0 mi North 15.0 mph 26.5 mph 0.00 in   Overcast
8:00 PM 39.2 °F 32.0 °F 35.6 °F 87% 30.13 in 10.0 mi North 11.5 mph 26.5 mph N/A   Overcast
8:30 PM 39.2 °F 34.2 °F 33.8 °F 81% 30.19 in 10.0 mi Variable 6.9 mph 19.6 mph N/A   Overcast
8:53 PM 39.9 °F 32.5 °F 33.1 °F 77% 30.20 in 10.0 mi North 12.7 mph 19.6 mph N/A   Mostly Cloudy
9:53 PM 37.9 °F 31.5 °F 30.9 °F 76% 30.23 in 10.0 mi North 9.2 mph - N/A   Clear
10:53 PM 37.0 °F 32.4 °F 30.0 °F 76% 30.28 in 10.0 mi NNW 5.8 mph - N/A   Clear
11:53 PM 36.0 °F 33.3 °F 30.0 °F 79% 30.32 in 10.0 mi Variable 3.5 mph - N/A   Clear